Regional Weather Roundup
Issued by NWS Green Bay, WI

Home | Current Version | Previous Version | Graphics & Text | Print | Product List | Glossary Off
Versions: 1 2 3 4 5 6 7 8 9 10 11 12 13 14 15 16 17 18 19 20 21 22 23 24 25 26 27 28 29 30 31 32 33 34 35 36 37 38 39 40 41 42 43 44 45 46 47 48 49 50

000
ASUS43 KGRB 150800
RWRGRB

NORTH-CENTRAL AND NORTHEAST WISCONSIN REGIONAL WEATHER ROUNDUP
NATIONAL WEATHER SERVICE GREEN BAY WI
200 AM CST FRI DEC 15 2017

WIZ005-009-010>012-018-019-150900-
NORTH CENTRAL WISCONSIN

CITY           SKY/WX    TMP DP  RH WIND       PRES   REMARKS
IRONWOOD       LGT SNOW  14  11  87 W16       29.81S FOG     WCI  -2
MANITOWISH WTR NOT AVBL
ARBOR VITAE    NOT AVBL
EAGLE RIVER    LGT SNOW  14  10  82 W9        29.75F WCI   2
LAND O LAKES   LGT SNOW  15  11  86 W5        29.76F WCI   7
RHINELANDER    LGT SNOW  15  12  88 W10       29.78S FOG     WCI   2
PHILLIPS       LGT SNOW  14  13  93 W3        29.80F
ANTIGO         NOT AVBL
TOMAHAWK       NOT AVBL
MERRILL        LGT SNOW  17  13  86 W8        29.82F WCI   6
$$

WIZ013-073-150900-
NORTHEAST WISCONSIN

CITY           SKY/WX    TMP DP  RH WIND       PRES   REMARKS
IRON MOUNTAIN  LGT SNOW  17  12  80 W3        29.76F
MARINETTE      LGT SNOW  20  18  92 W6        29.84F FOG
$$

WIZ017-030-035>037-045-150900-
CENTRAL WISCONSIN

CITY           SKY/WX    TMP DP  RH WIND       PRES   REMARKS
MEDFORD        NOT AVBL
WAUSAU         LGT SNOW  17  13  84 W7        29.82S FOG     WCI   8
MOSINEE        NOT AVBL
MARSHFIELD     LGT SNOW  18  14  84 W8        29.83F FOG     WCI   8
WISC RAPIDS    CLOUDY    20  11  68 W7        29.88F
STEVENS POINT  NOT AVBL
WAUPACA        FLURRIES  23  17  77 W10       29.88S
SHAWANO        LGT SNOW  22  18  86 W3        29.84F
CLINTONVILLE   NOT AVBL
WAUTOMA        FLURRIES  21  16  81 W12       29.89F WCI   9
$$

WIZ038-039-048-051-150900-
FOX VALLEY

CITY           SKY/WX    TMP DP  RH WIND       PRES   REMARKS
NWS GREEN BAY  CLOUDY    21  16  81 SW7       29.86F
APPLETON       NOT AVBL
OSHKOSH        LGT SNOW  22  17  81 W6        29.87F
FOND DU LAC    FLURRIES  23  15  71 W7        29.87F
$$

WIZ022-050-052-150900-
EAST CENTRAL WISCONSIN

CITY           SKY/WX    TMP DP  RH WIND       PRES   REMARKS
EPHRAIM        LGT SNOW  21  17  84 W6G18     29.81F
WASHINGTON ISL NOT AVBL
STURGEON BAY   LGT SNOW  21  18  88 W10       29.84F FOG     WCI  10
MANITOWOC      FLURRIES  21  15  78 SW8       29.87F
SHEBOYGAN      CLOUDY    20  15  81 SW8       29.87F
$$

LMZ563-521-522-541>543-150900-
LAKESHORE

STATION/POSITION TIME  TEMP    WIND        PRES    VSBY  WAVE
                       AIR SEA DIR/SP/G                  HT/PER
                 (UTC) (F)     (DEG/KT/KT) (MB)    (MI)  (FT/S)
SHEBOYGAN LKSHOR 0700   22     220/ 11/ 13 1013.5F
KEWAUNEE LKSHORE 0730   20     210/  8/ 12 1010.6F
NORTHPORT PIER   0740   22     260/  4/ 10 1010.2F
MENOMINEE LKSHOR 0730   20     210/  8/ 13 1010.5F
$$




USA.gov is the U.S. government's official web portal to all federal, state and local government web resources and services.